Location: Ballingbuur
(53.0000°N, 5.7667°E)
Time: 20:19:45
(UTC+00:00)

Cosmos 1709 Rocket - Pass Details

Date: 29 November 2020
Orbit: 947 x 1003 km, 82.9° (Epoch: 24 January)

Event Time Altitude Azimuth Distance (km) Brightness Sun altitude
Rises 05:00:00 0° 209° (SSW) 3,713 6.8 -20.8°
Reaches altitude 10° 05:02:37 10° 215° (SW) 2,770 6.1 -20.4°
Maximum altitude 05:08:46 48° 289° (WNW) 1,296 4.2 -19.5°
Drops below altitude 10° 05:14:56 10° 3° (N) 2,784 6.3 -18.6°
Sets 05:17:36 0° 9° (N) 3,733 7.0 -18.2°
